^^
Station Historical Data
Daily Summary for August 11, 2018 Units:  English    Metric   Both
« Previous Day
Next Day »
Daily Weekly Monthly Yearly Custom
  High: Low: Average:
Temperature: TemperatureF °F 55.2 °F 68 °F
Dew Point: DewpointF °F 53.2 °F 57.9 °F
Humidity: Humidity % 42 % 73 %
Wind Speed: WindSpeedMPH mph 0 mph 0 mph
Wind Gust: WindSpeedGustMPH mph - -
Wind:- - SSW
Pressure: PressureIn in 29.90 in -
Precipitation: 0 in    
Historical Graphs
 
 
Tabular Data for August 11, 2018
Time Temperature Dew Point Pressure Wind Wind Speed Wind Gust Humidity Rainfall Rate (Hourly) solar Conditions
TemperatureF °F DewpointF °F PressureIn in Calm     Humidity % HourlyPrecipIn in SoftwareType W/m2 Conditions
00:00 62.1 °F 56.9 °F 29.90 in Calm     83 % 0 in WeatherDisplay:10.37 W/m2 RA
00:05 62.1 °F 56.9 °F 29.90 in Calm     83 % 0 in WeatherDisplay:10.37 W/m2 RA
00:10 62.1 °F 56.9 °F 29.90 in Calm     83 % 0 in WeatherDisplay:10.37 W/m2 FEW
00:15 62 °F 56.8 °F 29.90 in Calm     83 % 0 in WeatherDisplay:10.37 W/m2 FEW
00:20 62 °F 56.8 °F 29.90 in Calm   1 mph 83 % 0 in WeatherDisplay:10.37 W/m2 FEW
00:25 61.9 °F 56.7 °F 29.90 in Calm     83 % 0 in WeatherDisplay:10.37 W/m2 FEW
00:30 61.9 °F 56.6 °F 29.90 in Calm     83 % 0 in WeatherDisplay:10.37 W/m2 FEW
00:35 61.8 °F 56.9 °F 29.90 in Calm     84 % 0 in WeatherDisplay:10.37 W/m2 FEW
00:40 61.7 °F 56.8 °F 29.90 in Calm     84 % 0 in WeatherDisplay:10.37 W/m2 FEW
00:45 61.6 °F 56.7 °F 29.90 in Calm     84 % 0 in WeatherDisplay:10.37 W/m2 FEW
00:50 61.5 °F 56.6 °F 29.90 in Calm     84 % 0 in WeatherDisplay:10.37 W/m2 FEW
00:55 61.4 °F 56.5 °F 29.90 in Calm     84 % 0 in WeatherDisplay:10.37 W/m2 FEW
01:00 61.3 °F 56.4 °F 29.90 in Calm     84 % 0 in WeatherDisplay:10.37 W/m2 FEW
01:05 61.1 °F 56.6 °F 29.90 in Calm     85 % 0 in WeatherDisplay:10.37 W/m2 FEW
01:10 61 °F 56.5 °F 29.90 in Calm     85 % 0 in WeatherDisplay:10.37 W/m2 FEW
01:15 60.8 °F 56.3 °F 29.91 in Calm     85 % 0 in WeatherDisplay:10.37 W/m2 FEW
01:20 60.6 °F 56.1 °F 29.91 in Calm     85 % 0 in WeatherDisplay:10.37 W/m2 FEW
01:25 60.4 °F 55.9 °F 29.91 in Calm     85 % 0 in WeatherDisplay:10.37 W/m2 FEW
01:30 60.3 °F 56.1 °F 29.91 in Calm     86 % 0 in WeatherDisplay:10.37 W/m2 FEW
01:35 60.1 °F 55.9 °F 29.91 in Calm     86 % 0 in WeatherDisplay:10.37 W/m2 FEW
01:40 59.9 °F 55.7 °F 29.91 in Calm     86 % 0 in WeatherDisplay:10.37 W/m2 FEW
01:45 59.8 °F 55.6 °F 29.91 in Calm     86 % 0 in WeatherDisplay:10.37 W/m2 FEW
01:50 59.6 °F 55.4 °F 29.91 in Calm     86 % 0 in WeatherDisplay:10.37 W/m2 FEW
01:55 59.5 °F 55.3 °F 29.91 in Calm     86 % 0 in WeatherDisplay:10.37 W/m2 FEW
02:00 59.3 °F 55.1 °F 29.91 in Calm     86 % 0 in WeatherDisplay:10.37 W/m2 FEW
02:05 59.2 °F 55 °F 29.91 in Calm     86 % 0 in WeatherDisplay:10.37 W/m2 FEW
02:10 59 °F 55.1 °F 29.91 in Calm     87 % 0 in WeatherDisplay:10.37 W/m2 FEW
02:15 58.9 °F 55 °F 29.91 in Calm     87 % 0 in WeatherDisplay:10.37 W/m2 FEW
02:20 58.7 °F 54.9 °F 29.91 in Calm     87 % 0 in WeatherDisplay:10.37 W/m2 FEW
02:25 58.6 °F 54.7 °F 29.91 in Calm     87 % 0 in WeatherDisplay:10.37 W/m2 FEW
02:30 58.5 °F 54.6 °F 29.91 in Calm     87 % 0 in WeatherDisplay:10.37 W/m2 FEW
02:35 58.3 °F 54.5 °F 29.91 in Calm     87 % 0 in WeatherDisplay:10.37 W/m2 FEW
02:40 58.2 °F 54.3 °F 29.91 in Calm     87 % 0 in WeatherDisplay:10.37 W/m2 FEW
02:45 58.1 °F 54.2 °F 29.91 in Calm     87 % 0 in WeatherDisplay:10.37 W/m2 FEW
02:50 57.9 °F 54.4 °F 29.91 in Calm     88 % 0 in WeatherDisplay:10.37 W/m2 FEW
02:55 57.8 °F 54.3 °F 29.91 in Calm     88 % 0 in WeatherDisplay:10.37 W/m2 FEW
03:00 57.7 °F 54.2 °F 29.91 in Calm     88 % 0 in WeatherDisplay:10.37 W/m2 FEW
03:05 57.6 °F 54.1 °F 29.91 in Calm     88 % 0 in WeatherDisplay:10.37 W/m2 FEW
03:10 57.5 °F 54 °F 29.91 in Calm     88 % 0 in WeatherDisplay:10.37 W/m2 FEW
03:15 57.4 °F 54.2 °F 29.91 in Calm     89 % 0 in WeatherDisplay:10.37 W/m2 FEW
03:20 57.3 °F 54.1 °F 29.91 in Calm     89 % 0 in WeatherDisplay:10.37 W/m2 FEW
03:25 57.2 °F 54 °F 29.91 in Calm     89 % 0 in WeatherDisplay:10.37 W/m2 FEW
03:30 57.1 °F 53.9 °F 29.91 in Calm     89 % 0 in WeatherDisplay:10.37 W/m2 FEW
03:35 57 °F 53.8 °F 29.91 in Calm     89 % 0 in WeatherDisplay:10.37 W/m2 FEW
03:40 56.9 °F 53.7 °F 29.91 in Calm     89 % 0 in WeatherDisplay:10.37 W/m2 FEW
03:45 56.9 °F 54 °F 29.91 in Calm     90 % 0 in WeatherDisplay:10.37 W/m2 FEW
03:50 56.8 °F 53.9 °F 29.91 in Calm     90 % 0 in WeatherDisplay:10.37 W/m2 FEW
03:55 56.7 °F 53.8 °F 29.91 in Calm     90 % 0 in WeatherDisplay:10.37 W/m2 FEW
04:00 56.7 °F 53.8 °F 29.91 in Calm     90 % 0 in WeatherDisplay:10.37 W/m2 FEW
04:05 56.6 °F 53.7 °F 29.91 in Calm     90 % 0 in WeatherDisplay:10.37 W/m2 FEW
04:10 56.5 °F 53.6 °F 29.91 in Calm     90 % 0 in WeatherDisplay:10.37 W/m2 FEW
04:15 56.4 °F 53.5 °F 29.91 in Calm     90 % 0 in WeatherDisplay:10.37 W/m2 FEW
04:20 56.4 °F 53.8 °F 29.91 in Calm     91 % 0 in WeatherDisplay:10.37 W/m2 FEW
04:25 56.3 °F 53.7 °F 29.91 in Calm     91 % 0 in WeatherDisplay:10.37 W/m2 FEW
04:30 56.2 °F 53.6 °F 29.91 in Calm     91 % 0 in WeatherDisplay:10.37 W/m2 FEW
04:35 56.1 °F 53.5 °F 29.91 in Calm     91 % 0 in WeatherDisplay:10.37 W/m2 FEW
04:40 56.1 °F 53.5 °F 29.91 in Calm     91 % 0 in WeatherDisplay:10.37 W/m2 FEW
04:45 56 °F 53.4 °F 29.91 in Calm     91 % 0 in WeatherDisplay:10.37 W/m2 FEW
04:50 55.9 °F 53.6 °F 29.91 in Calm     92 % 0 in WeatherDisplay:10.37 W/m2 FEW
04:55 55.8 °F 53.5 °F 29.91 in Calm     92 % 0 in WeatherDisplay:10.37 W/m2 FEW
05:00 55.8 °F 53.5 °F 29.91 in Calm     92 % 0 in WeatherDisplay:10.37 W/m2 FEW
05:05 55.7 °F 53.4 °F 29.91 in Calm     92 % 0 in WeatherDisplay:10.37 W/m2 FEW
05:10 55.7 °F 53.4 °F 29.92 in Calm     92 % 0 in WeatherDisplay:10.37 W/m2 FEW
05:15 55.6 °F 53.3 °F 29.92 in Calm     92 % 0 in WeatherDisplay:10.37 W/m2 FEW
05:20 55.6 °F 53.6 °F 29.92 in Calm     93 % 0 in WeatherDisplay:10.37 W/m2 FEW
05:25 55.6 °F 53.6 °F 29.92 in Calm     93 % 0 in WeatherDisplay:10.37 W/m2 FEW
05:30 55.5 °F 53.5 °F 29.92 in Calm     93 % 0 in WeatherDisplay:10.37 W/m2 FEW
05:35 55.5 °F 53.5 °F 29.92 in Calm     93 % 0 in WeatherDisplay:10.37 W/m2 FEW
05:40 55.5 °F 53.5 °F 29.92 in Calm     93 % 0 in WeatherDisplay:10.37 W/m2 FEW
05:45 55.4 °F 53.4 °F 29.92 in Calm     93 % 0 in WeatherDisplay:10.37 W/m2 FEW
05:50 55.4 °F 53.4 °F 29.93 in Calm     93 % 0 in WeatherDisplay:10.37 W/m2 FEW
05:55 55.4 °F 53.4 °F 29.93 in Calm     93 % 0 in WeatherDisplay:10.37 W/m2 FEW
06:00 55.3 °F 53.3 °F 29.93 in Calm     93 % 0 in WeatherDisplay:10.37 W/m2 FEW
06:05 55.3 °F 53.3 °F 29.93 in Calm     93 % 0 in WeatherDisplay:10.37 W/m2 FEW
06:10 55.3 °F 53.3 °F 29.93 in Calm     93 % 0 in WeatherDisplay:10.37 W/m2 FEW
06:15 55.2 °F 53.2 °F 29.93 in Calm     93 % 0 in WeatherDisplay:10.37 W/m2 FEW
06:20 55.2 °F 53.5 °F 29.93 in Calm     94 % 0 in WeatherDisplay:10.37 W/m2 FEW
06:25 55.2 °F 53.5 °F 29.93 in Calm     94 % 0 in WeatherDisplay:10.37 W/m2 FEW
06:30 55.2 °F 53.5 °F 29.94 in Calm     94 % 0 in WeatherDisplay:10.37 W/m2 FEW
06:35 55.3 °F 53.6 °F 29.94 in Calm     94 % 0 in WeatherDisplay:10.37 W/m2 FEW
06:40 55.3 °F 53.6 °F 29.94 in Calm     94 % 0 in WeatherDisplay:10.37 W/m2 FEW
06:45 55.4 °F 53.7 °F 29.94 in Calm     94 % 0 in WeatherDisplay:10.37 W/m2 FEW
06:50 55.4 °F 53.7 °F 29.94 in Calm     94 % 0 in WeatherDisplay:10.37 W/m2 FEW
06:55 55.5 °F 54.1 °F 29.94 in Calm     95 % 0 in WeatherDisplay:10.37 W/m2 FEW
07:00 55.6 °F 54.2 °F 29.94 in Calm     95 % 0 in WeatherDisplay:10.37 W/m2 FEW
07:05 55.7 °F 54.3 °F 29.94 in Calm     95 % 0 in WeatherDisplay:10.37 W/m2 FEW
07:10 55.7 °F 54.3 °F 29.94 in Calm     95 % 0 in WeatherDisplay:10.37 W/m2 FEW
07:15 55.8 °F 54.4 °F 29.93 in Calm     95 % 0 in WeatherDisplay:10.37 W/m2 FEW
07:20 55.9 °F 54.5 °F 29.93 in Calm     95 % 0 in WeatherDisplay:10.37 W/m2 FEW
07:25 56.1 °F 54.7 °F 29.94 in Calm     95 % 0 in WeatherDisplay:10.37 W/m2 FEW
07:30 56.3 °F 54.9 °F 29.94 in Calm     95 % 0 in WeatherDisplay:10.37 W/m2 FEW
07:35 56.5 °F 55.4 °F 29.94 in Calm     96 % 0 in WeatherDisplay:10.37 W/m2 FEW
07:40 56.7 °F 55.6 °F 29.94 in Calm     96 % 0 in WeatherDisplay:10.37 W/m2 FEW
07:45 57.1 °F 55.9 °F 29.94 in Calm     96 % 0 in WeatherDisplay:10.37 W/m2 FEW
07:50 57.4 °F 56.3 °F 29.94 in Calm     96 % 0 in WeatherDisplay:10.37 W/m2 FEW
07:55 57.9 °F 56.7 °F 29.94 in Calm     96 % 0 in WeatherDisplay:10.37 W/m2 FEW
08:00 58.3 °F 58.3 °F 29.94 in Calm     100 % 0 in WeatherDisplay:10.37 W/m2 FEW
08:05 58.7 °F 58.7 °F 29.95 in Calm     100 % 0 in WeatherDisplay:10.37 W/m2 FEW
08:10 59.1 °F 59.1 °F 29.95 in Calm     100 % 0 in WeatherDisplay:10.37 W/m2 FEW
08:15 59.3 °F 59.3 °F 29.95 in Calm     100 % 0 in WeatherDisplay:10.37 W/m2 FEW
08:20 59.6 °F 58.4 °F 29.95 in Calm     96 % 0 in WeatherDisplay:10.37 W/m2 FEW
08:25 59.8 °F 58.7 °F 29.95 in Calm     96 % 0 in WeatherDisplay:10.37 W/m2 FEW
08:30 60 °F 60 °F 29.95 in Calm     100 % 0 in WeatherDisplay:10.37 W/m2 FEW
08:35 60.2 °F 59.1 °F 29.95 in Calm     96 % 0 in WeatherDisplay:10.37 W/m2 FEW
08:40 60.6 °F 59.4 °F 29.95 in Calm     96 % 0 in WeatherDisplay:10.37 W/m2 FEW
08:45 61.1 °F 59.9 °F 29.95 in Calm     96 % 0 in WeatherDisplay:10.37 W/m2 FEW
08:50 61.5 °F 60.1 °F 29.95 in Calm     95 % 0 in WeatherDisplay:10.37 W/m2 FEW
08:55 62.1 °F 60.4 °F 29.95 in Calm     94 % 0 in WeatherDisplay:10.37 W/m2 FEW
09:00 62.7 °F 60.6 °F 29.95 in Calm     93 % 0 in WeatherDisplay:10.37 W/m2 FEW
09:05 63.4 °F 59.7 °F 29.95 in Calm   1 mph 88 % 0 in WeatherDisplay:10.37 W/m2 FEW
09:10 64.2 °F 59.9 °F 29.95 in Calm   1 mph 86 % 0 in WeatherDisplay:10.37 W/m2 FEW
09:15 65.1 °F 60.1 °F 29.95 in Calm   1 mph 84 % 0 in WeatherDisplay:10.37 W/m2 FEW
09:20 66 °F 60.3 °F 29.95 in Calm     82 % 0 in WeatherDisplay:10.37 W/m2 FEW
09:25 66.7 °F 60.7 °F 29.96 in Calm   1 mph 81 % 0 in WeatherDisplay:10.37 W/m2 FEW
09:30 67.5 °F 61.1 °F 29.95 in Calm   1 mph 80 % 0 in WeatherDisplay:10.37 W/m2 FEW
09:35 68 °F 60.9 °F 29.96 in Calm   1 mph 78 % 0 in WeatherDisplay:10.37 W/m2 FEW
09:40 68.6 °F 60.7 °F 29.96 in Calm     76 % 0 in WeatherDisplay:10.37 W/m2 FEW
09:45 69.3 °F 61 °F 29.96 in Calm   2 mph 75 % 0 in WeatherDisplay:10.37 W/m2 FEW
09:50 69.8 °F 61.1 °F 29.96 in Calm     74 % 0 in WeatherDisplay:10.37 W/m2 FEW
09:55 70.3 °F 60.5 °F 29.96 in Calm   1 mph 71 % 0 in WeatherDisplay:10.37 W/m2 FEW
10:00 70.8 °F 60.1 °F 29.96 in NW 1 mph 2 mph 69 % 0 in WeatherDisplay:10.37 W/m2 FEW
10:05 71.4 °F 61.1 °F 29.96 in Calm     70 % 0 in WeatherDisplay:10.37 W/m2 FEW
10:10 71.9 °F 61.6 °F 29.96 in Calm   2 mph 70 % 0 in WeatherDisplay:10.37 W/m2 FEW
10:15 72.5 °F 61.7 °F 29.96 in Calm   2 mph 69 % 0 in WeatherDisplay:10.37 W/m2 FEW
10:20 73 °F 62.2 °F 29.96 in Calm   1 mph 69 % 0 in WeatherDisplay:10.37 W/m2 FEW
10:25 73.4 °F 61.8 °F 29.96 in Calm   1 mph 67 % 0 in WeatherDisplay:10.37 W/m2 FEW
10:30 73.7 °F 61.2 °F 29.96 in Calm   2 mph 65 % 0 in WeatherDisplay:10.37 W/m2 FEW
10:35 74.2 °F 62.6 °F 29.96 in Calm     67 % 0 in WeatherDisplay:10.37 W/m2 FEW
10:40 74.6 °F 61.6 °F 29.96 in Calm     64 % 0 in WeatherDisplay:10.37 W/m2 FEW
10:45 75.1 °F 62 °F 29.96 in Calm     64 % 0 in WeatherDisplay:10.37 W/m2 FEW
10:50 75.5 °F 61.6 °F 29.96 in Calm   3 mph 62 % 0 in WeatherDisplay:10.37 W/m2 FEW
10:55 75.9 °F 62 °F 29.97 in Calm     62 % 0 in WeatherDisplay:10.37 W/m2 FEW
11:00 76.4 °F 63.3 °F 29.97 in Calm     64 % 0 in WeatherDisplay:10.37 W/m2 FEW
11:05 76.8 °F 62.4 °F 29.97 in Calm   3 mph 61 % 0 in WeatherDisplay:10.37 W/m2 FEW
11:10 77.2 °F 61.7 °F 29.97 in Calm   3 mph 59 % 0 in WeatherDisplay:10.37 W/m2 FEW
11:15 77.5 °F 61.1 °F 29.97 in Calm   2 mph 57 % 0 in WeatherDisplay:10.37 W/m2 FEW
11:20 77.8 °F 61.8 °F 29.97 in Calm   2 mph 58 % 0 in WeatherDisplay:10.37 W/m2 FEW
11:25 78 °F 61 °F 29.97 in Calm   4 mph 56 % 0 in WeatherDisplay:10.37 W/m2 FEW
11:30 78.2 °F 61.2 °F 29.97 in Calm   2 mph 56 % 0 in WeatherDisplay:10.37 W/m2 FEW
11:35 78.2 °F 61.7 °F 29.97 in Calm   1 mph 57 % 0 in WeatherDisplay:10.37 W/m2 FEW
11:40 78.4 °F 61.9 °F 29.97 in Calm   5 mph 57 % 0 in WeatherDisplay:10.37 W/m2 FEW
11:45 78.4 °F 62.4 °F 29.96 in Calm   3 mph 58 % 0 in WeatherDisplay:10.37 W/m2 FEW
11:50 78.5 °F 61 °F 29.96 in Calm     55 % 0 in WeatherDisplay:10.37 W/m2 FEW
11:55 78.6 °F 61.6 °F 29.96 in Calm   2 mph 56 % 0 in WeatherDisplay:10.37 W/m2 FEW
12:00 78.6 °F 61.1 °F 29.97 in Calm   1 mph 55 % 0 in WeatherDisplay:10.37 W/m2 FEW
12:05 78.6 °F 60.6 °F 29.97 in Calm   1 mph 54 % 0 in WeatherDisplay:10.37 W/m2 FEW
12:10 78.6 °F 60.6 °F 29.96 in Calm   3 mph 54 % 0 in WeatherDisplay:10.37 W/m2 FEW
12:15 78.6 °F 60.6 °F 29.97 in Calm   3 mph 54 % 0 in WeatherDisplay:10.37 W/m2 FEW
12:20 78.6 °F 61.1 °F 29.96 in Calm   2 mph 55 % 0 in WeatherDisplay:10.37 W/m2 FEW
12:25 78.6 °F 60.6 °F 29.96 in NW 1 mph 4 mph 54 % 0 in WeatherDisplay:10.37 W/m2 FEW
12:30 78.6 °F 60.6 °F 29.97 in WNW 1 mph 5 mph 54 % 0 in WeatherDisplay:10.37 W/m2 FEW
12:35 78.6 °F 61.1 °F 29.96 in Calm   3 mph 55 % 0 in WeatherDisplay:10.37 W/m2 FEW
12:40 78.7 °F 61.7 °F 29.96 in Calm   2 mph 56 % 0 in WeatherDisplay:10.37 W/m2 FEW
12:45 78.7 °F 61.2 °F 29.96 in Calm   2 mph 55 % 0 in WeatherDisplay:10.37 W/m2 FEW
12:50 78.8 °F 61.8 °F 29.96 in Calm   3 mph 56 % 0 in WeatherDisplay:10.37 W/m2 FEW
12:55 78.8 °F 62.3 °F 29.96 in Calm   1 mph 57 % 0 in WeatherDisplay:10.37 W/m2 FEW
13:00 78.9 °F 61.8 °F 29.96 in ENE 1 mph 5 mph 56 % 0 in WeatherDisplay:10.37 W/m2 FEW
13:05 78.9 °F 60.3 °F 29.96 in Calm   1 mph 53 % 0 in WeatherDisplay:10.37 W/m2 FEW
13:10 79 °F 60.9 °F 29.96 in Calm     54 % 0 in WeatherDisplay:10.37 W/m2 FEW
13:15 79.1 °F 59.4 °F 29.96 in Calm   3 mph 51 % 0 in WeatherDisplay:10.37 W/m2 FEW
13:20 79.1 °F 60.5 °F 29.96 in Calm     53 % 0 in WeatherDisplay:10.37 W/m2 FEW
13:25 79.2 °F 61.1 °F 29.96 in Calm   2 mph 54 % 0 in WeatherDisplay:10.37 W/m2 FEW
13:30 79.3 °F 60.1 °F 29.96 in Calm     52 % 0 in WeatherDisplay:10.37 W/m2 FEW
13:35 79.5 °F 60.9 °F 29.96 in Calm   4 mph 53 % 0 in WeatherDisplay:10.37 W/m2 FEW
13:40 79.5 °F 60.3 °F 29.96 in Calm   1 mph 52 % 0 in WeatherDisplay:10.37 W/m2 FEW
13:45 79.6 °F 59.9 °F 29.96 in Calm   4 mph 51 % 0 in WeatherDisplay:10.37 W/m2 FEW
13:50 79.7 °F 60.5 °F 29.96 in Calm   3 mph 52 % 0 in WeatherDisplay:10.37 W/m2 FEW
13:55 79.8 °F 60.1 °F 29.96 in Calm   2 mph 51 % 0 in WeatherDisplay:10.37 W/m2 FEW
14:00 79.9 °F 60.7 °F 29.96 in Calm     52 % 0 in WeatherDisplay:10.37 W/m2 FEW
14:05 80 °F 60.8 °F 29.96 in Calm   4 mph 52 % 0 in WeatherDisplay:10.37 W/m2 FEW
14:10 80.2 °F 61 °F 29.96 in Calm     52 % 0 in WeatherDisplay:10.37 W/m2 FEW
14:15 80.4 °F 58.9 °F 29.96 in Calm     48 % 0 in WeatherDisplay:10.37 W/m2 FEW
14:20 80.4 °F 60.1 °F 29.96 in Calm     50 % 0 in WeatherDisplay:10.37 W/m2 FEW
14:25 80.5 °F 60.1 °F 29.96 in Calm   1 mph 50 % 0 in WeatherDisplay:10.37 W/m2 FEW
14:30 80.4 °F 61.7 °F 29.96 in Calm     53 % 0 in WeatherDisplay:10.37 W/m2 FEW
14:35 80.3 °F 61.6 °F 29.95 in Calm     53 % 0 in WeatherDisplay:10.37 W/m2 FEW
14:40 80.3 °F 61.6 °F 29.95 in Calm     53 % 0 in WeatherDisplay:10.37 W/m2 FEW
14:45 80.3 °F 60.5 °F 29.95 in Calm   1 mph 51 % 0 in WeatherDisplay:10.37 W/m2 FEW
14:50 80.4 °F 61.2 °F 29.95 in Calm     52 % 0 in WeatherDisplay:10.37 W/m2 FEW
14:55 80.3 °F 61.6 °F 29.95 in Calm     53 % 0 in WeatherDisplay:10.37 W/m2 FEW
15:00 80.2 °F 61.5 °F 29.95 in Calm     53 % 0 in WeatherDisplay:10.37 W/m2 FEW
15:05 80.2 °F 59.9 °F 29.94 in Calm     50 % 0 in WeatherDisplay:10.37 W/m2 FEW
15:10 80.2 °F 60.4 °F 29.94 in Calm   4 mph 51 % 0 in WeatherDisplay:10.37 W/m2 FEW
15:15 80.1 °F 60.4 °F 29.94 in Calm     51 % 0 in WeatherDisplay:10.37 W/m2 FEW
15:20 80.3 °F 60 °F 29.94 in Calm     50 % 0 in WeatherDisplay:10.37 W/m2 FEW
15:25 80.5 °F 60.7 °F 29.94 in Calm   2 mph 51 % 0 in WeatherDisplay:10.37 W/m2 FEW
15:30 80.7 °F 60.9 °F 29.94 in Calm   1 mph 51 % 0 in WeatherDisplay:10.37 W/m2 FEW
15:35 80.9 °F 61.1 °F 29.94 in Calm     51 % 0 in WeatherDisplay:10.37 W/m2 FEW
15:40 81.1 °F 60.7 °F 29.94 in Calm   3 mph 50 % 0 in WeatherDisplay:10.37 W/m2 FEW
15:45 81.3 °F 60.3 °F 29.94 in Calm   1 mph 49 % 0 in WeatherDisplay:10.37 W/m2 FEW
15:50 81.4 °F 59.2 °F 29.94 in East 1 mph 3 mph 47 % 0 in WeatherDisplay:10.37 W/m2 FEW
15:55 81.3 °F 60.9 °F 29.94 in Calm   1 mph 50 % 0 in WeatherDisplay:10.37 W/m2 FEW
16:00 81.1 °F 60.7 °F 29.94 in Calm   1 mph 50 % 0 in WeatherDisplay:10.37 W/m2 FEW
16:05 81 °F 61.2 °F 29.94 in Calm   1 mph 51 % 0 in WeatherDisplay:10.37 W/m2 FEW
16:10 80.9 °F 61.6 °F 29.94 in Calm   2 mph 52 % 0 in WeatherDisplay:10.37 W/m2 FEW
16:15 80.9 °F 60.5 °F 29.94 in Calm   2 mph 50 % 0 in WeatherDisplay:10.37 W/m2 FEW
16:20 80.8 °F 59.3 °F 29.93 in Calm     48 % 0 in WeatherDisplay:10.37 W/m2 FEW
16:25 80.8 °F 60.4 °F 29.93 in Calm   2 mph 50 % 0 in WeatherDisplay:10.37 W/m2 FEW
16:30 80.8 °F 60.4 °F 29.93 in Calm   2 mph 50 % 0 in WeatherDisplay:10.37 W/m2 FEW
16:35 80.8 °F 59.9 °F 29.93 in Calm   2 mph 49 % 0 in WeatherDisplay:10.37 W/m2 FEW
16:40 80.8 °F 60.4 °F 29.93 in Calm   4 mph 50 % 0 in WeatherDisplay:10.37 W/m2 FEW
16:45 80.7 °F 59.8 °F 29.93 in Calm   2 mph 49 % 0 in WeatherDisplay:10.37 W/m2 FEW
16:50 80.7 °F 59.8 °F 29.93 in Calm   1 mph 49 % 0 in WeatherDisplay:10.37 W/m2 FEW
16:55 80.7 °F 58 °F 29.93 in Calm   2 mph 46 % 0 in WeatherDisplay:10.37 W/m2 FEW
17:00 80.6 °F 59.1 °F 29.93 in Calm     48 % 0 in WeatherDisplay:10.37 W/m2 FEW
17:05 80.5 °F 57.8 °F 29.93 in Calm   1 mph 46 % 0 in WeatherDisplay:10.37 W/m2 FEW
17:10 80.5 °F 57.2 °F 29.93 in Calm     45 % 0 in WeatherDisplay:10.37 W/m2 FEW
17:15 80.4 °F 57.7 °F 29.93 in Calm     46 % 0 in WeatherDisplay:10.37 W/m2 FEW
17:20 80.3 °F 56.4 °F 29.93 in Calm   1 mph 44 % 0 in WeatherDisplay:10.37 W/m2 FEW
17:25 80.4 °F 56.5 °F 29.93 in Calm   2 mph 44 % 0 in WeatherDisplay:10.37 W/m2 FEW
17:30 80.5 °F 57.8 °F 29.93 in Calm     46 % 0 in WeatherDisplay:10.37 W/m2 FEW
17:35 80.5 °F 56.6 °F 29.93 in Calm     44 % 0 in WeatherDisplay:10.37 W/m2 FEW
17:40 80.5 °F 57.8 °F 29.93 in Calm   1 mph 46 % 0 in WeatherDisplay:10.37 W/m2 FEW
17:45 80.5 °F 56.6 °F 29.94 in Calm     44 % 0 in WeatherDisplay:10.37 W/m2 FEW
17:50 80.5 °F 57.2 °F 29.94 in Calm     45 % 0 in WeatherDisplay:10.37 W/m2 FEW
17:55 80.4 °F 55.9 °F 29.94 in Calm     43 % 0 in WeatherDisplay:10.37 W/m2 FEW
18:00 80.3 °F 55.8 °F 29.94 in Calm     43 % 0 in WeatherDisplay:10.37 W/m2 FEW
18:05 80.3 °F 55.1 °F 29.94 in Calm     42 % 0 in WeatherDisplay:10.37 W/m2 FEW
18:10 80.1 °F 55.6 °F 29.94 in Calm     43 % 0 in WeatherDisplay:10.37 W/m2 FEW
18:15 80 °F 56.1 °F 29.94 in Calm     44 % 0 in WeatherDisplay:10.37 W/m2 FEW
18:20 79.9 °F 56.7 °F 29.94 in Calm     45 % 0 in WeatherDisplay:10.37 W/m2 FEW
18:25 79.8 °F 58.4 °F 29.94 in Calm     48 % 0 in WeatherDisplay:10.37 W/m2 FEW
18:30 79.6 °F 57.6 °F 29.94 in Calm     47 % 0 in WeatherDisplay:10.37 W/m2 FEW
18:35 79.5 °F 57.5 °F 29.94 in Calm     47 % 0 in WeatherDisplay:10.37 W/m2 FEW
18:40 79.4 °F 58 °F 29.94 in Calm     48 % 0 in WeatherDisplay:10.37 W/m2 FEW
18:45 79.2 °F 57.8 °F 29.94 in Calm     48 % 0 in WeatherDisplay:10.37 W/m2 FEW
18:50 79 °F 58.8 °F 29.94 in Calm     50 % 0 in WeatherDisplay:10.37 W/m2 FEW
18:55 78.7 °F 57.9 °F 29.94 in Calm     49 % 0 in WeatherDisplay:10.37 W/m2 FEW
19:00 78.5 °F 59.4 °F 29.95 in Calm     52 % 0 in WeatherDisplay:10.37 W/m2 FEW
19:05 78.3 °F 60.3 °F 29.95 in Calm     54 % 0 in WeatherDisplay:10.37 W/m2 FEW
19:10 78 °F 60.5 °F 29.95 in Calm     55 % 0 in WeatherDisplay:10.37 W/m2 FEW
19:15 77.6 °F 61.2 °F 29.95 in Calm     57 % 0 in WeatherDisplay:10.37 W/m2 FEW
19:20 77.3 °F 61.4 °F 29.95 in Calm     58 % 0 in WeatherDisplay:10.37 W/m2 FEW
19:25 76.8 °F 61.9 °F 29.95 in Calm     60 % 0 in WeatherDisplay:10.37 W/m2 FEW
19:30 76.4 °F 61.5 °F 29.95 in Calm     60 % 0 in WeatherDisplay:10.37 W/m2 FEW
19:35 75.9 °F 62 °F 29.95 in Calm     62 % 0 in WeatherDisplay:10.37 W/m2 FEW
19:40 75.5 °F 61.6 °F 29.95 in Calm     62 % 0 in WeatherDisplay:10.37 W/m2 FEW
19:45 75.4 °F 61.9 °F 29.95 in Calm     63 % 0 in WeatherDisplay:10.37 W/m2 FEW
19:50 74.8 °F 62.3 °F 29.95 in Calm     65 % 0 in WeatherDisplay:10.37 W/m2 FEW
19:55 74.3 °F 62.2 °F 29.95 in Calm     66 % 0 in WeatherDisplay:10.37 W/m2 FEW
20:00 73.9 °F 61.8 °F 29.96 in Calm     66 % 0 in WeatherDisplay:10.37 W/m2 FEW
20:05 73.2 °F 61.6 °F 29.96 in Calm     67 % 0 in WeatherDisplay:10.37 W/m2 FEW
20:10 72.5 °F 61 °F 29.96 in Calm     67 % 0 in WeatherDisplay:10.37 W/m2 FEW
20:15 72 °F 60.4 °F 29.96 in Calm     67 % 0 in WeatherDisplay:10.37 W/m2 FEW
20:20 71.5 °F 60.4 °F 29.96 in Calm     68 % 0 in WeatherDisplay:10.37 W/m2 FEW
20:25 71.1 °F 60.4 °F 29.96 in Calm     69 % 0 in WeatherDisplay:10.37 W/m2 FEW
20:30 70.6 °F 60.4 °F 29.96 in Calm     70 % 0 in WeatherDisplay:10.37 W/m2 FEW
20:35 70.2 °F 60 °F 29.96 in Calm     70 % 0 in WeatherDisplay:10.37 W/m2 FEW
20:40 69.8 °F 60.3 °F 29.97 in Calm     72 % 0 in WeatherDisplay:10.37 W/m2 FEW
20:45 69.4 °F 60 °F 29.97 in Calm     72 % 0 in WeatherDisplay:10.37 W/m2 FEW
20:50 69 °F 59.9 °F 29.98 in Calm     73 % 0 in WeatherDisplay:10.37 W/m2 FEW
20:55 68.6 °F 59.6 °F 29.98 in Calm     73 % 0 in WeatherDisplay:10.37 W/m2 FEW
21:00 68.3 °F 59.3 °F 29.98 in Calm     73 % 0 in WeatherDisplay:10.37 W/m2 FEW
21:05 68 °F 59.4 °F 29.98 in Calm     74 % 0 in WeatherDisplay:10.37 W/m2 FEW
21:10 67.7 °F 59.1 °F 29.98 in Calm     74 % 0 in WeatherDisplay:10.37 W/m2 FEW
21:15 67.4 °F 59.2 °F 29.98 in Calm     75 % 0 in WeatherDisplay:10.37 W/m2 FEW
21:20 67 °F 59.2 °F 29.98 in Calm     76 % 0 in WeatherDisplay:10.37 W/m2 FEW
21:25 66.7 °F 59.3 °F 29.98 in Calm     77 % 0 in WeatherDisplay:10.37 W/m2 FEW
21:30 66.4 °F 59 °F 29.98 in Calm     77 % 0 in WeatherDisplay:10.37 W/m2 FEW
21:35 66.1 °F 59.4 °F 29.99 in Calm     79 % 0 in WeatherDisplay:10.37 W/m2 FEW
21:40 65.8 °F 59.1 °F 29.99 in Calm     79 % 0 in WeatherDisplay:10.37 W/m2 FEW
21:45 65.5 °F 59.2 °F 29.99 in Calm     80 % 0 in WeatherDisplay:10.37 W/m2 FEW
21:50 65.2 °F 59.3 °F 29.99 in Calm     81 % 0 in WeatherDisplay:10.37 W/m2 FEW
21:55 65 °F 59 °F 29.99 in Calm     81 % 0 in WeatherDisplay:10.37 W/m2 FEW
22:00 64.7 °F 59.1 °F 29.99 in Calm     82 % 0 in WeatherDisplay:10.37 W/m2 FEW
22:05 64.5 °F 58.9 °F 29.99 in Calm     82 % 0 in WeatherDisplay:10.37 W/m2 FEW
22:10 64.2 °F 58.6 °F 29.99 in Calm     82 % 0 in WeatherDisplay:10.37 W/m2 FEW
22:15 64 °F 58.4 °F 29.99 in Calm     82 % 0 in WeatherDisplay:10.37 W/m2 FEW
22:20 63.8 °F 58.5 °F 29.99 in Calm     83 % 0 in WeatherDisplay:10.37 W/m2 FEW
22:25 63.6 °F 58.3 °F 30.00 in Calm     83 % 0 in WeatherDisplay:10.37 W/m2 FEW
22:30 63.4 °F 58.1 °F 30.00 in Calm     83 % 0 in WeatherDisplay:10.37 W/m2 FEW
22:35 63.1 °F 58.2 °F 30.00 in Calm     84 % 0 in WeatherDisplay:10.37 W/m2 FEW
22:40 63 °F 58.1 °F 30.00 in Calm     84 % 0 in WeatherDisplay:10.37 W/m2 FEW
22:45 62.8 °F 58.2 °F 30.00 in Calm     85 % 0 in WeatherDisplay:10.37 W/m2 FEW
22:50 62.5 °F 58 °F 30.00 in Calm     85 % 0 in WeatherDisplay:10.37 W/m2 FEW
22:55 62.4 °F 58.1 °F 30.00 in Calm     86 % 0 in WeatherDisplay:10.37 W/m2 FEW
23:00 62.2 °F 57.9 °F 30.00 in Calm     86 % 0 in WeatherDisplay:10.37 W/m2 FEW
23:05 62 °F 57.8 °F 30.00 in Calm     86 % 0 in WeatherDisplay:10.37 W/m2 FEW
23:10 61.8 °F 57.6 °F 30.00 in Calm     86 % 0 in WeatherDisplay:10.37 W/m2 FEW
23:15 61.7 °F 57.4 °F 30.00 in Calm     86 % 0 in WeatherDisplay:10.37 W/m2 FEW
23:20 61.5 °F 57.3 °F 30.00 in Calm     86 % 0 in WeatherDisplay:10.37 W/m2 FEW
23:25 61.3 °F 57.1 °F 30.00 in Calm     86 % 0 in WeatherDisplay:10.37 W/m2 FEW
23:30 61.2 °F 57 °F 30.00 in Calm     86 % 0 in WeatherDisplay:10.37 W/m2 FEW
23:35 61 °F 56.8 °F 30.00 in Calm     86 % 0 in WeatherDisplay:10.37 W/m2 FEW
23:40 60.9 °F 56.7 °F 30.00 in Calm     86 % 0 in WeatherDisplay:10.37 W/m2 FEW
23:45 60.8 °F 56.6 °F 30.00 in Calm     86 % 0 in WeatherDisplay:10.37 W/m2 FEW
23:50 60.6 °F 56.4 °F 30.00 in Calm     86 % 0 in WeatherDisplay:10.37 W/m2 FEW
23:55 60.5 °F 56.6 °F 30.00 in Calm     87 % 0 in WeatherDisplay:10.37 W/m2 FEW
Juneau County Weather
Compliments of Weather Underground - 3 mb